Tracking 25963 objects as of 12-Aug-2022
HD Live streaming from Space Station
objects crossing your sky now

OBJECT R

Track OBJECT R now!
10-day predictions


NORAD ID: 51839
Int'l Code: 2022-019R
Perigee: 531.2 km
Apogee: 550.1 km
Inclination: 97.5 °
Period: 95.3 minutes
Semi major axis: 6911 km
RCS: Unknown
Launch date: February 27, 2022
Source: People's Republic of China (PRC)
Launch site: Wenchang Satellite Launch Center (WSC)
aabbcc
Your satellite tracking list
Your tracking list is empty




NASA's NSSDC Master Catalog

Two Line Element Set (TLE):
1 51839U 22019R   22224.14234374  .00003721  00000-0  22691-3 0  9996
2 51839  97.5092 297.8297 0013652  59.8849  27.2523 15.10878158 25051
Source of the keplerian elements: AFSPC